Powrót do katalogu

STARLINK-11522

AktywnyŁącznośćVLEO
NORAD 63141·PAYLOAD·🇺🇸 United States

Wystrzelony Mar 3, 2025 z Cape Canaveral Space Force Station

Loading…

Następne Przeloty (najbliższe 24 godziny)

TLE

ŚwieżeSource: CelesTrak SupGP

Epoka: Sep 14, 2026, 15:29 UTC

1 63141C 25043K   26257.64562500  .00025034  00000+0  19459-3 0  2570
2 63141  43.0006 191.5540 0001576 266.7120  40.2827 15.70807742    13

Śledź STARLINK-11522 w czasie rzeczywistym z AllMySat

Download on the App Store